Zurück zum Katalog

BREEZE-M DEB

AktivHEO
NORAD 32032·DEBRIS·🇷🇺 Russia

Gestartet Feb 28, 2006 von Baikonur Cosmodrome

Loading…

Nächste Überflüge (nächste 24 Stunden)

TLE

AktuellSource: Space-Track

Epoche: Sep 14, 2026, 05:22 UTC

1 32032U 06006K   26257.22421090  .00000044  00000-0  82585-4 0  9994
2 32032  51.3666 232.0227 4485007 210.7461 112.9753  6.19864542406302

Verfolge BREEZE-M DEB in Echtzeit mit AllMySat

Download on the App Store